Time,TemperatureF,DewpointF,PressureIn,WindDirection,WindDirectionDegrees,WindSpeedMPH,WindSpeedGustMPH,Humidity,HourlyPrecipIn,Conditions,Clouds,dailyrainin,SoftwareType,DateUTC
2013-10-12 00:00:00,48.9,44.0,30.10,NNE,33,0.0,1.0,83,0.00,,,0.00,Wunderground v.1.15,2013-10-12 04:00:00,
2013-10-12 00:05:00,48.8,43.9,30.10,NNE,33,0.0,1.0,83,0.00,,,0.00,Wunderground v.1.15,2013-10-12 04:05:00,
2013-10-12 00:10:00,48.7,44.1,30.10,NNE,33,0.0,1.0,84,0.00,,,0.00,Wunderground v.1.15,2013-10-12 04:10:00,
2013-10-12 00:15:00,48.7,44.1,30.10,NNE,33,0.0,1.0,84,0.00,,,0.00,Wunderground v.1.15,2013-10-12 04:15:00,
2013-10-12 00:20:00,48.7,44.1,30.10,NNE,33,0.0,1.0,84,0.00,,,0.00,Wunderground v.1.15,2013-10-12 04:20:00,
2013-10-12 00:25:00,48.8,44.2,30.10,NNE,33,0.0,1.0,84,0.00,,,0.00,Wunderground v.1.15,2013-10-12 04:25:00,
2013-10-12 00:30:00,48.9,44.6,30.10,NNE,33,0.0,1.0,85,0.00,,,0.00,Wunderground v.1.15,2013-10-12 04:30:00,
2013-10-12 00:40:00,48.8,44.8,30.11,NNE,33,0.0,1.0,86,0.00,,,0.00,Wunderground v.1.15,2013-10-12 04:40:00,
2013-10-12 00:45:00,48.9,44.3,30.11,NNE,33,0.0,1.0,84,0.00,,,0.00,Wunderground v.1.15,2013-10-12 04:45:00,
2013-10-12 00:50:00,48.9,43.6,30.11,NNE,26,0.0,1.0,82,0.00,,,0.00,Wunderground v.1.15,2013-10-12 04:50:00,
2013-10-12 00:55:00,49.0,43.7,30.11,NNE,26,0.0,1.0,82,0.00,,,0.00,Wunderground v.1.15,2013-10-12 04:55:00,
2013-10-12 01:05:00,48.9,43.3,30.11,NNE,27,0.0,1.0,81,0.00,,,0.00,Wunderground v.1.15,2013-10-12 05:05:00,
2013-10-12 01:10:00,48.7,42.8,30.11,NNE,27,0.0,1.0,80,0.00,,,0.00,Wunderground v.1.15,2013-10-12 05:10:00,
2013-10-12 01:15:00,48.4,42.8,30.11,NNE,27,0.0,1.0,81,0.00,,,0.00,Wunderground v.1.15,2013-10-12 05:15:00,
2013-10-12 01:25:00,47.9,43.0,30.11,NNE,26,0.0,1.0,83,0.00,,,0.00,Wunderground v.1.15,2013-10-12 05:25:00,
2013-10-12 01:30:00,47.9,42.7,30.11,NNE,27,0.0,1.0,82,0.00,,,0.00,Wunderground v.1.15,2013-10-12 05:30:00,
2013-10-12 01:35:00,47.9,43.3,30.11,NNE,27,0.0,1.0,84,0.00,,,0.00,Wunderground v.1.15,2013-10-12 05:35:00,
2013-10-12 01:40:00,48.0,43.7,30.12,NNE,27,0.0,2.0,85,0.00,,,0.00,Wunderground v.1.15,2013-10-12 05:40:00,
2013-10-12 01:50:00,48.3,43.7,30.11,NNE,27,0.0,1.0,84,0.00,,,0.00,Wunderground v.1.15,2013-10-12 05:50:00,
2013-10-12 01:55:00,48.2,43.9,30.12,NNE,27,0.0,1.0,85,0.00,,,0.00,Wunderground v.1.15,2013-10-12 05:55:00,
2013-10-12 02:00:00,48.0,43.1,30.12,NNE,27,0.0,1.0,83,0.00,,,0.00,Wunderground v.1.15,2013-10-12 06:00:00,
2013-10-12 02:05:00,47.5,42.0,30.12,NNE,27,0.0,1.0,81,0.00,,,0.00,Wunderground v.1.15,2013-10-12 06:05:00,
2013-10-12 02:10:00,47.2,41.7,30.12,NNE,27,0.0,1.0,81,0.00,,,0.00,Wunderground v.1.15,2013-10-12 06:10:00,
2013-10-12 02:20:00,46.8,41.6,30.12,NNE,27,0.0,1.0,82,0.00,,,0.00,Wunderground v.1.15,2013-10-12 06:20:00,
2013-10-12 02:25:00,46.6,41.7,30.12,NNE,27,0.0,1.0,83,0.00,,,0.00,Wunderground v.1.15,2013-10-12 06:25:00,
2013-10-12 02:30:00,46.6,41.7,30.12,NNE,20,0.0,1.0,83,0.00,,,0.00,Wunderground v.1.15,2013-10-12 06:30:00,
2013-10-12 02:35:00,46.7,41.8,30.12,North,349,1.0,1.0,83,0.00,,,0.00,Wunderground v.1.15,2013-10-12 06:35:00,
2013-10-12 02:40:00,46.8,42.2,30.12,NNW,345,1.0,3.0,84,0.00,,,0.00,Wunderground v.1.15,2013-10-12 06:40:00,
2013-10-12 02:45:00,46.9,42.0,30.12,NNW,345,0.0,3.0,83,0.00,,,0.00,Wunderground v.1.15,2013-10-12 06:45:00,
2013-10-12 02:55:00,47.0,42.4,30.12,NNW,345,0.0,1.0,84,0.00,,,0.00,Wunderground v.1.15,2013-10-12 06:55:00,
2013-10-12 03:00:00,47.0,42.4,30.12,NNW,345,0.0,1.0,84,0.00,,,0.00,Wunderground v.1.15,2013-10-12 07:00:00,
2013-10-12 03:05:00,46.8,42.5,30.12,NNW,345,0.0,1.0,85,0.00,,,0.00,Wunderground v.1.15,2013-10-12 07:05:00,
2013-10-12 03:15:00,46.6,41.7,30.12,NNW,345,1.0,1.0,83,0.00,,,0.00,Wunderground v.1.15,2013-10-12 07:15:00,
2013-10-12 03:20:00,46.4,41.2,30.12,NNW,345,0.0,1.0,82,0.00,,,0.00,Wunderground v.1.15,2013-10-12 07:20:00,
2013-10-12 03:30:00,46.4,41.2,30.12,NNW,345,0.0,1.0,82,0.00,,,0.00,Wunderground v.1.15,2013-10-12 07:30:00,
2013-10-12 03:35:00,46.4,40.9,30.12,NNW,345,0.0,1.0,81,0.00,,,0.00,Wunderground v.1.15,2013-10-12 07:35:00,
2013-10-12 03:40:00,46.4,41.2,30.12,NNW,345,0.0,1.0,82,0.00,,,0.00,Wunderground v.1.15,2013-10-12 07:40:00,
2013-10-12 03:45:00,46.3,41.1,30.12,NNW,345,0.0,1.0,82,0.00,,,0.00,Wunderground v.1.15,2013-10-12 07:45:00,
2013-10-12 03:50:00,46.4,40.9,30.12,NNW,345,0.0,1.0,81,0.00,,,0.00,Wunderground v.1.15,2013-10-12 07:50:00,
2013-10-12 04:00:00,46.2,41.0,30.13,NNW,345,0.0,1.0,82,0.00,,,0.00,Wunderground v.1.15,2013-10-12 08:00:00,
2013-10-12 04:05:00,46.0,40.8,30.13,NNW,345,0.0,1.0,82,0.00,,,0.00,Wunderground v.1.15,2013-10-12 08:05:00,
2013-10-12 04:10:00,45.8,40.9,30.13,NNW,345,0.0,1.0,83,0.00,,,0.00,Wunderground v.1.15,2013-10-12 08:10:00,
2013-10-12 04:15:00,45.5,40.6,30.13,NNW,345,0.0,1.0,83,0.00,,,0.00,Wunderground v.1.15,2013-10-12 08:15:00,
2013-10-12 04:20:00,45.5,40.6,30.13,NNW,345,0.0,1.0,83,0.00,,,0.00,Wunderground v.1.15,2013-10-12 08:20:00,
2013-10-12 04:25:00,45.5,40.6,30.14,NNW,345,0.0,1.0,83,0.00,,,0.00,Wunderground v.1.15,2013-10-12 08:25:00,
2013-10-12 04:35:00,45.6,40.7,30.14,NNW,345,0.0,1.0,83,0.00,,,0.00,Wunderground v.1.15,2013-10-12 08:35:00,
2013-10-12 04:40:00,45.7,40.8,30.14,NNW,345,0.0,1.0,83,0.00,,,0.00,Wunderground v.1.15,2013-10-12 08:40:00,
2013-10-12 04:45:00,45.7,40.8,30.14,NNW,345,0.0,1.0,83,0.00,,,0.00,Wunderground v.1.15,2013-10-12 08:45:00,
2013-10-12 04:50:00,45.7,41.1,30.14,NNW,345,0.0,1.0,84,0.00,,,0.00,Wunderground v.1.15,2013-10-12 08:50:00,
2013-10-12 05:00:00,45.9,41.3,30.14,WNW,294,0.0,1.0,84,0.00,,,0.00,Wunderground v.1.15,2013-10-12 09:00:00,
2013-10-12 05:10:00,46.2,41.6,30.14,WNW,295,0.0,1.0,84,0.00,,,0.00,Wunderground v.1.15,2013-10-12 09:10:00,
2013-10-12 05:15:00,46.3,41.7,30.15,WNW,294,0.0,1.0,84,0.00,,,0.00,Wunderground v.1.15,2013-10-12 09:15:00,
2013-10-12 05:20:00,46.3,41.7,30.15,WNW,295,0.0,1.0,84,0.00,,,0.00,Wunderground v.1.15,2013-10-12 09:20:00,
2013-10-12 05:25:00,46.4,41.8,30.15,WNW,295,0.0,1.0,84,0.00,,,0.00,Wunderground v.1.15,2013-10-12 09:25:00,
2013-10-12 05:30:00,46.4,41.8,30.15,WNW,295,0.0,1.0,84,0.00,,,0.00,Wunderground v.1.15,2013-10-12 09:30:00,
2013-10-12 05:40:00,46.1,41.8,30.15,WNW,295,0.0,1.0,85,0.00,,,0.00,Wunderground v.1.15,2013-10-12 09:40:00,
2013-10-12 05:45:00,46.0,41.7,30.15,WNW,295,0.0,1.0,85,0.00,,,0.00,Wunderground v.1.15,2013-10-12 09:45:00,
2013-10-12 05:50:00,45.8,41.9,30.16,WNW,295,0.0,1.0,86,0.00,,,0.00,Wunderground v.1.15,2013-10-12 09:50:00,
2013-10-12 05:55:00,45.8,41.9,30.16,WNW,295,0.0,1.0,86,0.00,,,0.00,Wunderground v.1.15,2013-10-12 09:55:00,
2013-10-12 06:00:00,45.7,42.1,30.16,WNW,295,0.0,1.0,87,0.00,,,0.00,Wunderground v.1.15,2013-10-12 10:00:00,
2013-10-12 06:05:00,45.7,42.1,30.16,WNW,295,0.0,1.0,87,0.00,,,0.00,Wunderground v.1.15,2013-10-12 10:05:00,
2013-10-12 06:15:00,45.2,41.6,30.17,WNW,295,0.0,1.0,87,0.00,,,0.00,Wunderground v.1.15,2013-10-12 10:15:00,
2013-10-12 06:20:00,44.8,41.2,30.17,WNW,295,0.0,1.0,87,0.00,,,0.00,Wunderground v.1.15,2013-10-12 10:20:00,
2013-10-12 06:25:00,44.4,41.1,30.17,WNW,295,0.0,1.0,88,0.00,,,0.00,Wunderground v.1.15,2013-10-12 10:25:00,
2013-10-12 06:30:00,44.0,40.7,30.17,WNW,295,0.0,1.0,88,0.00,,,0.00,Wunderground v.1.15,2013-10-12 10:30:00,
2013-10-12 06:35:00,43.7,40.7,30.17,WNW,295,0.0,1.0,89,0.00,,,0.00,Wunderground v.1.15,2013-10-12 10:35:00,
2013-10-12 06:45:00,43.3,40.6,30.17,WNW,295,0.0,1.0,90,0.00,,,0.00,Wunderground v.1.15,2013-10-12 10:45:00,
2013-10-12 06:50:00,43.3,40.8,30.18,WNW,295,0.0,1.0,91,0.00,,,0.00,Wunderground v.1.15,2013-10-12 10:50:00,
2013-10-12 06:55:00,43.3,40.8,30.18,WNW,295,0.0,1.0,91,0.00,,,0.00,Wunderground v.1.15,2013-10-12 10:55:00,
2013-10-12 07:00:00,43.3,40.8,30.18,WNW,295,0.0,1.0,91,0.00,,,0.00,Wunderground v.1.15,2013-10-12 11:00:00,
2013-10-12 07:10:00,43.2,40.8,30.19,WNW,295,0.0,1.0,91,0.00,,,0.00,Wunderground v.1.15,2013-10-12 11:10:00,
2013-10-12 07:20:00,43.3,40.8,30.19,WNW,295,0.0,2.0,91,0.00,,,0.00,Wunderground v.1.15,2013-10-12 11:20:00,
2013-10-12 07:25:00,43.6,41.1,30.19,WNW,295,1.0,2.0,91,0.00,,,0.00,Wunderground v.1.15,2013-10-12 11:25:00,
2013-10-12 07:30:00,43.8,41.3,30.19,WNW,296,1.0,1.0,91,0.00,,,0.00,Wunderground v.1.15,2013-10-12 11:30:00,
2013-10-12 07:35:00,44.0,41.5,30.19,WNW,297,0.0,2.0,91,0.00,,,0.00,Wunderground v.1.15,2013-10-12 11:35:00,
2013-10-12 07:40:00,44.3,41.8,30.19,WNW,297,0.0,1.0,91,0.00,,,0.00,Wunderground v.1.15,2013-10-12 11:40:00,
2013-10-12 07:45:00,44.6,41.8,30.19,WNW,297,0.0,1.0,90,0.00,,,0.00,Wunderground v.1.15,2013-10-12 11:45:00,
2013-10-12 07:55:00,45.0,42.0,30.20,WNW,297,0.0,1.0,89,0.00,,,0.00,Wunderground v.1.15,2013-10-12 11:55:00,
2013-10-12 08:00:00,45.2,42.2,30.20,WNW,297,0.0,1.0,89,0.00,,,0.00,Wunderground v.1.15,2013-10-12 12:00:00,
2013-10-12 08:05:00,45.3,42.2,30.20,WNW,297,0.0,1.0,89,0.00,,,0.00,Wunderground v.1.15,2013-10-12 12:05:00,
2013-10-12 08:10:00,45.4,42.3,30.20,WNW,297,0.0,1.0,89,0.00,,,0.00,Wunderground v.1.15,2013-10-12 12:10:00,
2013-10-12 08:15:00,45.6,42.5,30.20,WNW,297,0.0,1.0,89,0.00,,,0.00,Wunderground v.1.15,2013-10-12 12:15:00,
2013-10-12 08:25:00,45.7,42.3,30.21,WNW,297,0.0,1.0,88,0.00,,,0.00,Wunderground v.1.15,2013-10-12 12:25:00,
2013-10-12 08:30:00,45.7,42.1,30.21,WNW,297,0.0,1.0,87,0.00,,,0.00,Wunderground v.1.15,2013-10-12 12:30:00,
2013-10-12 08:35:00,46.0,42.6,30.21,WNW,297,0.0,1.0,88,0.00,,,0.00,Wunderground v.1.15,2013-10-12 12:35:00,
2013-10-12 08:45:00,46.5,42.8,30.21,WNW,297,0.0,1.0,87,0.00,,,0.00,Wunderground v.1.15,2013-10-12 12:45:00,
2013-10-12 08:50:00,47.0,43.3,30.21,WNW,297,0.0,1.0,87,0.00,,,0.00,Wunderground v.1.15,2013-10-12 12:50:00,
2013-10-12 08:55:00,47.9,44.2,30.21,WNW,297,0.0,1.0,87,0.00,,,0.00,Wunderground v.1.15,2013-10-12 12:55:00,
2013-10-12 09:00:00,48.8,46.0,30.22,ESE,120,0.0,1.0,90,0.00,,,0.00,Wunderground v.1.15,2013-10-12 13:00:00,
2013-10-12 09:10:00,50.1,45.1,30.22,SSE,166,0.0,1.0,83,0.00,,,0.00,Wunderground v.1.15,2013-10-12 13:10:00,
2013-10-12 09:15:00,50.5,45.5,30.22,West,268,0.0,1.0,83,0.00,,,0.00,Wunderground v.1.15,2013-10-12 13:15:00,
2013-10-12 09:20:00,51.0,46.0,30.22,East,101,0.0,2.0,83,0.00,,,0.00,Wunderground v.1.15,2013-10-12 13:20:00,
2013-10-12 09:25:00,51.8,48.1,30.22,ESE,104,0.0,4.0,87,0.00,,,0.00,Wunderground v.1.15,2013-10-12 13:25:00,
2013-10-12 09:35:00,53.5,48.8,30.23,NE,38,2.0,4.0,84,0.00,,,0.00,Wunderground v.1.15,2013-10-12 13:35:00,
2013-10-12 09:40:00,53.8,49.1,30.23,SE,138,2.0,2.0,84,0.00,,,0.00,Wunderground v.1.15,2013-10-12 13:40:00,
2013-10-12 09:45:00,53.9,49.2,30.23,ENE,70,2.0,2.0,84,0.00,,,0.00,Wunderground v.1.15,2013-10-12 13:45:00,
2013-10-12 09:50:00,54.1,49.4,30.23,North,359,2.0,2.0,84,0.00,,,0.00,Wunderground v.1.15,2013-10-12 13:50:00,
2013-10-12 09:55:00,54.2,49.8,30.23,South,187,1.0,2.0,85,0.00,,,0.00,Wunderground v.1.15,2013-10-12 13:55:00,
2013-10-12 10:05:00,54.2,49.5,30.23,ESE,102,2.0,3.0,84,0.00,,,0.00,Wunderground v.1.15,2013-10-12 14:05:00,
2013-10-12 10:10:00,54.2,49.5,30.24,NNE,22,2.0,2.0,84,0.00,,,0.00,Wunderground v.1.15,2013-10-12 14:10:00,
2013-10-12 10:15:00,54.2,49.5,30.24,SSE,160,2.0,3.0,84,0.00,,,0.00,Wunderground v.1.15,2013-10-12 14:15:00,
2013-10-12 10:20:00,54.0,49.6,30.24,SE,137,3.0,3.0,85,0.00,,,0.00,Wunderground v.1.15,2013-10-12 14:20:00,
2013-10-12 10:25:00,53.9,49.8,30.24,NNE,20,3.0,6.0,86,0.00,,,0.00,Wunderground v.1.15,2013-10-12 14:25:00,
2013-10-12 10:30:00,53.7,49.6,30.24,East,97,3.0,5.0,86,0.00,,,0.00,Wunderground v.1.15,2013-10-12 14:30:00,
2013-10-12 10:40:00,53.6,50.1,30.25,NW,314,2.0,3.0,88,0.00,,,0.00,Wunderground v.1.15,2013-10-12 14:40:00,
2013-10-12 10:45:00,53.5,50.0,30.25,ENE,61,2.0,3.0,88,0.00,,,0.00,Wunderground v.1.15,2013-10-12 14:45:00,
2013-10-12 10:50:00,53.4,50.2,30.25,SSE,166,3.0,3.0,89,0.00,,,0.00,Wunderground v.1.15,2013-10-12 14:50:00,
2013-10-12 10:55:00,53.5,50.3,30.25,ENE,72,2.0,3.0,89,0.00,,,0.00,Wunderground v.1.15,2013-10-12 14:55:00,
2013-10-12 11:00:00,53.6,50.4,30.25,ENE,58,2.0,2.0,89,0.00,,,0.00,Wunderground v.1.15,2013-10-12 15:00:00,
2013-10-12 11:10:00,53.9,50.7,30.25,ESE,107,2.0,2.0,89,0.00,,,0.00,Wunderground v.1.15,2013-10-12 15:10:00,
2013-10-12 11:15:00,54.0,50.5,30.25,SE,133,2.0,4.0,88,0.00,,,0.00,Wunderground v.1.15,2013-10-12 15:15:00,
2013-10-12 11:20:00,53.9,50.4,30.25,NNE,16,3.0,3.0,88,0.00,,,0.00,Wunderground v.1.15,2013-10-12 15:20:00,
2013-10-12 11:25:00,53.9,50.4,30.26,NNW,337,2.0,5.0,88,0.00,,,0.00,Wunderground v.1.15,2013-10-12 15:25:00,
2013-10-12 11:30:00,53.9,50.4,30.26,SSE,149,2.0,2.0,88,0.00,,,0.00,Wunderground v.1.15,2013-10-12 15:30:00,
2013-10-12 11:35:00,53.9,50.4,30.26,SSE,162,1.0,3.0,88,0.00,,,0.00,Wunderground v.1.15,2013-10-12 15:35:00,
2013-10-12 11:45:00,53.9,50.4,30.26,East,80,2.0,5.0,88,0.00,,,0.00,Wunderground v.1.15,2013-10-12 15:45:00,
2013-10-12 11:50:00,53.9,50.4,30.26,ENE,58,1.0,3.0,88,0.00,,,0.00,Wunderground v.1.15,2013-10-12 15:50:00,
2013-10-12 11:55:00,53.8,50.3,30.26,SSE,164,2.0,3.0,88,0.00,,,0.00,Wunderground v.1.15,2013-10-12 15:55:00,
2013-10-12 12:00:00,53.8,50.3,30.26,ENE,62,2.0,4.0,88,0.00,,,0.00,Wunderground v.1.15,2013-10-12 16:00:00,
2013-10-12 12:05:00,54.0,50.8,30.26,SSE,166,1.0,4.0,89,0.00,,,0.00,Wunderground v.1.15,2013-10-12 16:05:00,
2013-10-12 12:10:00,54.2,50.7,30.26,SE,127,1.0,2.0,88,0.00,,,0.00,Wunderground v.1.15,2013-10-12 16:10:00,
2013-10-12 12:20:00,54.4,50.6,30.26,ESE,107,2.0,4.0,87,0.00,,,0.00,Wunderground v.1.15,2013-10-12 16:20:00,
2013-10-12 12:30:00,54.4,50.9,30.26,SSW,195,1.0,1.0,88,0.00,,,0.00,Wunderground v.1.15,2013-10-12 16:30:00,
2013-10-12 12:35:00,54.5,51.0,30.26,NE,52,0.0,3.0,88,0.00,,,0.00,Wunderground v.1.15,2013-10-12 16:35:00,
2013-10-12 12:40:00,54.6,51.1,30.26,ESE,116,1.0,2.0,88,0.00,,,0.00,Wunderground v.1.15,2013-10-12 16:40:00,
2013-10-12 12:45:00,54.4,50.9,30.26,ENE,65,2.0,2.0,88,0.00,,,0.00,Wunderground v.1.15,2013-10-12 16:45:00,
2013-10-12 12:55:00,54.3,50.8,30.26,ESE,110,1.0,2.0,88,0.00,,,0.00,Wunderground v.1.15,2013-10-12 16:55:00,
2013-10-12 13:00:00,54.3,50.8,30.25,East,95,2.0,3.0,88,0.00,,,0.00,Wunderground v.1.15,2013-10-12 17:00:00,
2013-10-12 13:10:00,54.6,51.1,30.25,East,84,1.0,3.0,88,0.00,,,0.00,Wunderground v.1.15,2013-10-12 17:10:00,
2013-10-12 13:15:00,54.6,51.1,30.25,SSE,152,1.0,3.0,88,0.00,,,0.00,Wunderground v.1.15,2013-10-12 17:15:00,
2013-10-12 13:20:00,54.7,51.2,30.25,ESE,123,1.0,4.0,88,0.00,,,0.00,Wunderground v.1.15,2013-10-12 17:20:00,
2013-10-12 13:30:00,54.6,50.8,30.25,ESE,106,2.0,2.0,87,0.00,,,0.00,Wunderground v.1.15,2013-10-12 17:30:00,
2013-10-12 13:35:00,54.6,51.4,30.25,ESE,108,1.0,2.0,89,0.00,,,0.00,Wunderground v.1.15,2013-10-12 17:35:00,
2013-10-12 13:40:00,54.8,51.3,30.25,ESE,108,1.0,3.0,88,0.00,,,0.00,Wunderground v.1.15,2013-10-12 17:40:00,
2013-10-12 13:45:00,54.7,50.9,30.25,ESE,113,2.0,3.0,87,0.00,,,0.00,Wunderground v.1.15,2013-10-12 17:45:00,
2013-10-12 13:50:00,54.8,51.3,30.25,ESE,113,1.0,1.0,88,0.00,,,0.00,Wunderground v.1.15,2013-10-12 17:50:00,
2013-10-12 14:00:00,55.2,51.4,30.25,South,183,1.0,2.0,87,0.00,,,0.00,Wunderground v.1.15,2013-10-12 18:00:00,
2013-10-12 14:05:00,55.4,51.3,30.25,SSE,163,1.0,2.0,86,0.00,,,0.00,Wunderground v.1.15,2013-10-12 18:05:00,
2013-10-12 14:10:00,55.4,51.3,30.25,SE,135,1.0,1.0,86,0.00,,,0.00,Wunderground v.1.15,2013-10-12 18:10:00,
2013-10-12 14:15:00,55.5,51.4,30.25,NW,308,1.0,1.0,86,0.00,,,0.00,Wunderground v.1.15,2013-10-12 18:15:00,
2013-10-12 14:20:00,55.5,51.4,30.25,ESE,109,0.0,1.0,86,0.00,,,0.00,Wunderground v.1.15,2013-10-12 18:20:00,
2013-10-12 14:25:00,55.4,51.3,30.25,ESE,109,1.0,1.0,86,0.00,,,0.00,Wunderground v.1.15,2013-10-12 18:25:00,
2013-10-12 14:35:00,55.3,51.5,30.25,ESE,104,0.0,1.0,87,0.00,,,0.00,Wunderground v.1.15,2013-10-12 18:35:00,
2013-10-12 14:40:00,55.3,51.5,30.25,NE,37,1.0,1.0,87,0.00,,,0.00,Wunderground v.1.15,2013-10-12 18:40:00,
2013-10-12 14:50:00,55.3,51.5,30.25,South,172,1.0,2.0,87,0.00,,,0.00,Wunderground v.1.15,2013-10-12 18:50:00,
2013-10-12 14:55:00,55.4,51.6,30.25,SSE,152,1.0,2.0,87,0.00,,,0.00,Wunderground v.1.15,2013-10-12 18:55:00,
2013-10-12 15:00:00,55.4,51.6,30.25,South,171,1.0,1.0,87,0.00,,,0.00,Wunderground v.1.15,2013-10-12 19:00:00,
2013-10-12 15:10:00,55.5,51.4,30.25,ESE,118,1.0,4.0,86,0.00,,,0.00,Wunderground v.1.15,2013-10-12 19:10:00,
2013-10-12 15:15:00,55.5,51.7,30.25,NE,49,1.0,4.0,87,0.00,,,0.00,Wunderground v.1.15,2013-10-12 19:15:00,
2013-10-12 15:25:00,55.5,51.7,30.26,SE,143,1.0,1.0,87,0.00,,,0.00,Wunderground v.1.15,2013-10-12 19:25:00,
2013-10-12 15:30:00,55.4,51.6,30.26,East,88,0.0,5.0,87,0.00,,,0.00,Wunderground v.1.15,2013-10-12 19:30:00,
2013-10-12 15:35:00,55.3,51.8,30.26,NNW,335,1.0,5.0,88,0.00,,,0.00,Wunderground v.1.15,2013-10-12 19:35:00,
2013-10-12 15:45:00,55.1,51.6,30.26,ENE,78,1.0,1.0,88,0.00,,,0.00,Wunderground v.1.15,2013-10-12 19:45:00,
2013-10-12 15:50:00,55.0,51.5,30.26,SE,138,1.0,1.0,88,0.00,,,0.00,Wunderground v.1.15,2013-10-12 19:50:00,
2013-10-12 15:55:00,54.8,51.3,30.26,ESE,121,2.0,2.0,88,0.00,,,0.00,Wunderground v.1.15,2013-10-12 19:55:00,
2013-10-12 16:00:00,54.7,51.2,30.26,SE,127,2.0,2.0,88,0.00,,,0.00,Wunderground v.1.15,2013-10-12 20:00:00,
2013-10-12 16:10:00,54.6,51.4,30.26,ENE,77,1.0,1.0,89,0.00,,,0.00,Wunderground v.1.15,2013-10-12 20:10:00,
2013-10-12 16:20:00,54.2,51.0,30.26,ESE,118,1.0,3.0,89,0.00,,,0.00,Wunderground v.1.15,2013-10-12 20:20:00,
2013-10-12 16:25:00,54.0,50.8,30.26,ESE,118,2.0,3.0,89,0.00,,,0.00,Wunderground v.1.15,2013-10-12 20:25:00,
2013-10-12 16:30:00,53.8,50.9,30.26,ESE,118,1.0,1.0,90,0.00,,,0.00,Wunderground v.1.15,2013-10-12 20:30:00,
2013-10-12 16:40:00,53.7,50.8,30.26,ESE,104,1.0,1.0,90,0.00,,,0.00,Wunderground v.1.15,2013-10-12 20:40:00,
2013-10-12 16:45:00,53.7,51.1,30.26,ESE,104,0.0,1.0,91,0.00,,,0.00,Wunderground v.1.15,2013-10-12 20:45:00,
2013-10-12 16:55:00,53.5,50.6,30.26,ESE,114,1.0,4.0,90,0.00,,,0.00,Wunderground v.1.15,2013-10-12 20:55:00,
2013-10-12 17:00:00,53.5,50.9,30.26,WNW,303,1.0,1.0,91,0.00,,,0.00,Wunderground v.1.15,2013-10-12 21:00:00,
2013-10-12 17:05:00,53.3,50.7,30.26,ESE,106,1.0,1.0,91,0.00,,,0.00,Wunderground v.1.15,2013-10-12 21:05:00,
2013-10-12 17:10:00,53.3,50.7,30.26,ESE,110,1.0,1.0,91,0.00,,,0.00,Wunderground v.1.15,2013-10-12 21:10:00,
2013-10-12 17:20:00,53.2,50.6,30.26,ESE,108,1.0,1.0,91,0.00,,,0.00,Wunderground v.1.15,2013-10-12 21:20:00,
2013-10-12 17:30:00,53.2,50.6,30.27,SE,125,1.0,1.0,91,0.00,,,0.00,Wunderground v.1.15,2013-10-12 21:30:00,
2013-10-12 17:35:00,53.2,50.6,30.27,ESE,119,1.0,2.0,91,0.00,,,0.00,Wunderground v.1.15,2013-10-12 21:35:00,
2013-10-12 17:40:00,53.2,50.6,30.27,East,95,1.0,1.0,91,0.00,,,0.00,Wunderground v.1.15,2013-10-12 21:40:00,
2013-10-12 17:45:00,53.1,50.5,30.27,SSE,167,1.0,1.0,91,0.00,,,0.00,Wunderground v.1.15,2013-10-12 21:45:00,
2013-10-12 17:50:00,53.0,50.7,30.27,SE,133,0.0,1.0,92,0.00,,,0.00,Wunderground v.1.15,2013-10-12 21:50:00,
2013-10-12 17:55:00,53.0,50.7,30.27,ENE,68,0.0,1.0,92,0.00,,,0.00,Wunderground v.1.15,2013-10-12 21:55:00,
2013-10-12 18:05:00,52.8,50.5,30.27,SE,133,1.0,1.0,92,0.00,,,0.00,Wunderground v.1.15,2013-10-12 22:05:00,
2013-10-12 18:10:00,52.7,50.4,30.27,ESE,116,1.0,1.0,92,0.00,,,0.00,Wunderground v.1.15,2013-10-12 22:10:00,
2013-10-12 18:20:00,52.5,50.2,30.27,SE,124,1.0,2.0,92,0.00,,,0.00,Wunderground v.1.15,2013-10-12 22:20:00,
2013-10-12 18:25:00,52.4,50.1,30.27,NNE,19,1.0,2.0,92,0.00,,,0.00,Wunderground v.1.15,2013-10-12 22:25:00,
2013-10-12 18:30:00,52.3,50.3,30.27,SE,125,1.0,1.0,93,0.00,,,0.00,Wunderground v.1.15,2013-10-12 22:30:00,
2013-10-12 18:40:00,52.2,50.2,30.28,ESE,107,1.0,1.0,93,0.00,,,0.00,Wunderground v.1.15,2013-10-12 22:40:00,
2013-10-12 18:45:00,52.2,50.5,30.28,ESE,107,0.0,2.0,94,0.00,,,0.00,Wunderground v.1.15,2013-10-12 22:45:00,
2013-10-12 18:50:00,52.1,50.4,30.28,ENE,64,0.0,2.0,94,0.00,,,0.00,Wunderground v.1.15,2013-10-12 22:50:00,
2013-10-12 18:55:00,52.0,50.3,30.28,ESE,120,1.0,2.0,94,0.00,,,0.00,Wunderground v.1.15,2013-10-12 22:55:00,
2013-10-12 19:00:00,52.0,50.3,30.28,NE,52,1.0,3.0,94,0.00,,,0.00,Wunderground v.1.15,2013-10-12 23:00:00,
2013-10-12 19:10:00,51.9,50.2,30.28,ESE,114,1.0,1.0,94,0.00,,,0.00,Wunderground v.1.15,2013-10-12 23:10:00,
2013-10-12 19:15:00,51.8,50.1,30.28,East,81,1.0,1.0,94,0.00,,,0.00,Wunderground v.1.15,2013-10-12 23:15:00,
2013-10-12 19:20:00,51.7,50.0,30.29,ESE,116,2.0,2.0,94,0.00,,,0.00,Wunderground v.1.15,2013-10-12 23:20:00,
2013-10-12 19:25:00,51.7,50.0,30.29,ENE,61,1.0,2.0,94,0.00,,,0.00,Wunderground v.1.15,2013-10-12 23:25:00,
2013-10-12 19:35:00,51.5,49.8,30.29,ESE,110,2.0,2.0,94,0.00,,,0.00,Wunderground v.1.15,2013-10-12 23:35:00,
2013-10-12 19:40:00,51.4,49.7,30.29,ESE,113,1.0,2.0,94,0.00,,,0.00,Wunderground v.1.15,2013-10-12 23:40:00,
2013-10-12 19:50:00,51.1,49.1,30.29,ESE,117,2.0,2.0,93,0.00,,,0.00,Wunderground v.1.15,2013-10-12 23:50:00,
2013-10-12 19:55:00,50.9,49.2,30.29,ESE,110,2.0,2.0,94,0.00,,,0.00,Wunderground v.1.15,2013-10-12 23:55:00,
2013-10-12 20:00:00,50.8,49.1,30.29,ESE,110,2.0,2.0,94,0.00,,,0.00,Wunderground v.1.15,2013-10-13 00:00:00,
2013-10-12 20:05:00,50.7,48.7,30.29,ESE,113,2.0,2.0,93,0.00,,,0.00,Wunderground v.1.15,2013-10-13 00:05:00,
2013-10-12 20:10:00,50.6,48.7,30.29,ESE,118,2.0,4.0,93,0.00,,,0.00,Wunderground v.1.15,2013-10-13 00:10:00,
2013-10-12 20:20:00,50.6,48.7,30.29,ENE,74,1.0,1.0,93,0.00,,,0.00,Wunderground v.1.15,2013-10-13 00:20:00,
2013-10-12 20:25:00,50.5,48.6,30.29,ESE,114,1.0,2.0,93,0.00,,,0.00,Wunderground v.1.15,2013-10-13 00:25:00,
2013-10-12 20:30:00,50.5,48.6,30.29,ESE,104,1.0,4.0,93,0.00,,,0.00,Wunderground v.1.15,2013-10-13 00:30:00,
2013-10-12 20:35:00,50.5,48.6,30.30,NE,43,1.0,4.0,93,0.00,,,0.00,Wunderground v.1.15,2013-10-13 00:35:00,
2013-10-12 20:40:00,50.5,48.6,30.30,ESE,115,2.0,2.0,93,0.00,,,0.00,Wunderground v.1.15,2013-10-13 00:40:00,
2013-10-12 20:45:00,50.4,48.5,30.30,ENE,71,1.0,2.0,93,0.00,,,0.00,Wunderground v.1.15,2013-10-13 00:45:00,
2013-10-12 20:55:00,50.4,48.5,30.30,ESE,116,1.0,1.0,93,0.00,,,0.00,Wunderground v.1.15,2013-10-13 00:55:00,
2013-10-12 21:00:00,50.4,48.5,30.30,ESE,108,1.0,3.0,93,0.00,,,0.00,Wunderground v.1.15,2013-10-13 01:00:00,
2013-10-12 21:05:00,50.4,48.5,30.30,ESE,118,1.0,3.0,93,0.00,,,0.00,Wunderground v.1.15,2013-10-13 01:05:00,
2013-10-12 21:15:00,50.3,48.4,30.30,ENE,70,0.0,1.0,93,0.00,,,0.00,Wunderground v.1.15,2013-10-13 01:15:00,
2013-10-12 21:20:00,50.3,48.4,30.30,ENE,71,0.0,1.0,93,0.00,,,0.00,Wunderground v.1.15,2013-10-13 01:20:00,
2013-10-12 21:30:00,50.3,48.4,30.30,East,94,0.0,1.0,93,0.00,,,0.00,Wunderground v.1.15,2013-10-13 01:30:00,
2013-10-12 21:35:00,50.3,48.4,30.30,East,94,0.0,1.0,93,0.00,,,0.00,Wunderground v.1.15,2013-10-13 01:35:00,
2013-10-12 21:45:00,50.3,48.4,30.30,East,94,0.0,1.0,93,0.00,,,0.00,Wunderground v.1.15,2013-10-13 01:45:00,
2013-10-12 21:50:00,50.2,48.3,30.30,East,94,0.0,1.0,93,0.00,,,0.00,Wunderground v.1.15,2013-10-13 01:50:00,
2013-10-12 21:55:00,50.2,48.3,30.30,East,94,0.0,1.0,93,0.00,,,0.00,Wunderground v.1.15,2013-10-13 01:55:00,
2013-10-12 22:00:00,50.2,48.3,30.31,East,94,0.0,1.0,93,0.00,,,0.00,Wunderground v.1.15,2013-10-13 02:00:00,
2013-10-12 22:05:00,50.2,48.3,30.31,East,94,0.0,1.0,93,0.00,,,0.00,Wunderground v.1.15,2013-10-13 02:05:00,
2013-10-12 22:10:00,50.1,48.2,30.31,East,94,0.0,2.0,93,0.00,,,0.00,Wunderground v.1.15,2013-10-13 02:10:00,
2013-10-12 22:15:00,50.1,48.2,30.31,ESE,110,0.0,2.0,93,0.00,,,0.00,Wunderground v.1.15,2013-10-13 02:15:00,
2013-10-12 22:20:00,50.1,48.2,30.31,ESE,122,0.0,1.0,93,0.00,,,0.00,Wunderground v.1.15,2013-10-13 02:20:00,
2013-10-12 22:25:00,50.1,48.2,30.31,ESE,122,0.0,1.0,93,0.00,,,0.00,Wunderground v.1.15,2013-10-13 02:25:00,
2013-10-12 22:35:00,50.0,47.8,30.31,SE,125,1.0,2.0,92,0.00,,,0.00,Wunderground v.1.15,2013-10-13 02:35:00,
2013-10-12 22:40:00,50.1,47.9,30.31,SE,125,0.0,1.0,92,0.00,,,0.00,Wunderground v.1.15,2013-10-13 02:40:00,
2013-10-12 22:50:00,50.0,48.1,30.31,ESE,104,0.0,1.0,93,0.00,,,0.00,Wunderground v.1.15,2013-10-13 02:50:00,
2013-10-12 22:55:00,50.0,48.1,30.31,SSE,153,0.0,1.0,93,0.00,,,0.00,Wunderground v.1.15,2013-10-13 02:55:00,
2013-10-12 23:00:00,50.0,48.1,30.31,SSE,153,0.0,1.0,93,0.00,,,0.00,Wunderground v.1.15,2013-10-13 03:00:00,
2013-10-12 23:10:00,49.9,48.0,30.31,East,100,0.0,1.0,93,0.00,,,0.00,Wunderground v.1.15,2013-10-13 03:10:00,
2013-10-12 23:20:00,49.9,48.0,30.31,East,100,0.0,1.0,93,0.00,,,0.00,Wunderground v.1.15,2013-10-13 03:20:00,
2013-10-12 23:25:00,49.8,47.9,30.31,SE,136,1.0,1.0,93,0.00,,,0.00,Wunderground v.1.15,2013-10-13 03:25:00,
2013-10-12 23:30:00,49.8,47.9,30.32,SE,135,0.0,1.0,93,0.00,,,0.00,Wunderground v.1.15,2013-10-13 03:30:00,
2013-10-12 23:35:00,49.8,47.9,30.31,SE,136,0.0,1.0,93,0.00,,,0.00,Wunderground v.1.15,2013-10-13 03:35:00,
2013-10-12 23:45:00,49.7,47.5,30.32,SE,137,0.0,1.0,92,0.00,,,0.00,Wunderground v.1.15,2013-10-13 03:45:00,
2013-10-12 23:50:00,49.7,47.5,30.31,South,171,0.0,1.0,92,0.00,,,0.00,Wunderground v.1.15,2013-10-13 03:50:00,